index,time,SiteAddr,SiteName,app,area,date,device_id,gps_alt,gps_fix,gps_lat,gps_lon,gps_num,name,s_d0,s_d1,s_d2,s_h0,s_t0,timestamp
0,16:55:29,高雄市大華國小 高雄市鳥松區大華里大華路200號,高雄市市立大華國小(2018),AirBox,kaohsiung,2024-03-21,74DA38F20BDE,2.0,1.0,22.653,120.34,9.0,高雄市鳥松區大華國小2,16.0,17.0,11.0,62.0,23.62,2024-03-21T16:55:29Z
1,17:01:38,高雄市大華國小 高雄市鳥松區大華里大華路200號,高雄市市立大華國小(2018),AirBox,kaohsiung,2024-03-21,74DA38F20BDE,2.0,1.0,22.653,120.34,9.0,高雄市鳥松區大華國小2,16.0,18.0,12.0,62.0,23.62,2024-03-21T17:01:38Z
2,17:07:45,高雄市大華國小 高雄市鳥松區大華里大華路200號,高雄市市立大華國小(2018),AirBox,kaohsiung,2024-03-21,74DA38F20BDE,2.0,1.0,22.653,120.34,9.0,高雄市鳥松區大華國小2,17.0,18.0,12.0,62.0,23.5,2024-03-21T17:07:45Z
3,17:13:53,高雄市大華國小 高雄市鳥松區大華里大華路200號,高雄市市立大華國小(2018),AirBox,kaohsiung,2024-03-21,74DA38F20BDE,2.0,1.0,22.653,120.34,9.0,高雄市鳥松區大華國小2,18.0,20.0,13.0,62.0,23.5,2024-03-21T17:13:53Z
4,17:20:00,高雄市大華國小 高雄市鳥松區大華里大華路200號,高雄市市立大華國小(2018),AirBox,kaohsiung,2024-03-21,74DA38F20BDE,2.0,1.0,22.653,120.34,9.0,高雄市鳥松區大華國小2,18.0,19.0,13.0,63.0,23.37,2024-03-21T17:20:00Z
5,17:26:10,高雄市大華國小 高雄市鳥松區大華里大華路200號,高雄市市立大華國小(2018),AirBox,kaohsiung,2024-03-21,74DA38F20BDE,2.0,1.0,22.653,120.34,9.0,高雄市鳥松區大華國小2,17.0,19.0,12.0,63.0,23.37,2024-03-21T17:26:10Z
6,17:32:18,高雄市大華國小 高雄市鳥松區大華里大華路200號,高雄市市立大華國小(2018),AirBox,kaohsiung,2024-03-21,74DA38F20BDE,2.0,1.0,22.653,120.34,9.0,高雄市鳥松區大華國小2,17.0,18.0,12.0,63.0,23.37,2024-03-21T17:32:18Z
7,17:38:26,高雄市大華國小 高雄市鳥松區大華里大華路200號,高雄市市立大華國小(2018),AirBox,kaohsiung,2024-03-21,74DA38F20BDE,2.0,1.0,22.653,120.34,9.0,高雄市鳥松區大華國小2,16.0,18.0,12.0,63.0,23.5,2024-03-21T17:38:26Z
8,17:44:34,高雄市大華國小 高雄市鳥松區大華里大華路200號,高雄市市立大華國小(2018),AirBox,kaohsiung,2024-03-21,74DA38F20BDE,2.0,1.0,22.653,120.34,9.0,高雄市鳥松區大華國小2,16.0,18.0,12.0,63.0,23.5,2024-03-21T17:44:34Z
9,17:50:41,高雄市大華國小 高雄市鳥松區大華里大華路200號,高雄市市立大華國小(2018),AirBox,kaohsiung,2024-03-21,74DA38F20BDE,2.0,1.0,22.653,120.34,9.0,高雄市鳥松區大華國小2,17.0,18.0,12.0,63.0,23.5,2024-03-21T17:50:41Z
10,17:56:48,高雄市大華國小 高雄市鳥松區大華里大華路200號,高雄市市立大華國小(2018),AirBox,kaohsiung,2024-03-21,74DA38F20BDE,2.0,1.0,22.653,120.34,9.0,高雄市鳥松區大華國小2,16.0,17.0,12.0,64.0,23.5,2024-03-21T17:56:48Z
11,18:02:58,高雄市大華國小 高雄市鳥松區大華里大華路200號,高雄市市立大華國小(2018),AirBox,kaohsiung,2024-03-21,74DA38F20BDE,2.0,1.0,22.653,120.34,9.0,高雄市鳥松區大華國小2,17.0,19.0,12.0,63.0,23.37,2024-03-21T18:02:58Z
12,18:09:12,高雄市大華國小 高雄市鳥松區大華里大華路200號,高雄市市立大華國小(2018),AirBox,kaohsiung,2024-03-21,74DA38F20BDE,2.0,1.0,22.653,120.34,9.0,高雄市鳥松區大華國小2,16.0,17.0,12.0,64.0,23.25,2024-03-21T18:09:12Z
13,18:15:21,高雄市大華國小 高雄市鳥松區大華里大華路200號,高雄市市立大華國小(2018),AirBox,kaohsiung,2024-03-21,74DA38F20BDE,2.0,1.0,22.653,120.34,9.0,高雄市鳥松區大華國小2,17.0,19.0,12.0,64.0,23.25,2024-03-21T18:15:21Z
14,18:21:29,高雄市大華國小 高雄市鳥松區大華里大華路200號,高雄市市立大華國小(2018),AirBox,kaohsiung,2024-03-21,74DA38F20BDE,2.0,1.0,22.653,120.34,9.0,高雄市鳥松區大華國小2,16.0,18.0,12.0,64.0,23.25,2024-03-21T18:21:29Z
15,18:27:36,高雄市大華國小 高雄市鳥松區大華里大華路200號,高雄市市立大華國小(2018),AirBox,kaohsiung,2024-03-21,74DA38F20BDE,2.0,1.0,22.653,120.34,9.0,高雄市鳥松區大華國小2,16.0,17.0,11.0,64.0,23.25,2024-03-21T18:27:36Z
16,18:33:43,高雄市大華國小 高雄市鳥松區大華里大華路200號,高雄市市立大華國小(2018),AirBox,kaohsiung,2024-03-21,74DA38F20BDE,2.0,1.0,22.653,120.34,9.0,高雄市鳥松區大華國小2,16.0,17.0,11.0,63.0,23.25,2024-03-21T18:33:43Z
17,18:39:49,高雄市大華國小 高雄市鳥松區大華里大華路200號,高雄市市立大華國小(2018),AirBox,kaohsiung,2024-03-21,74DA38F20BDE,2.0,1.0,22.653,120.34,9.0,高雄市鳥松區大華國小2,15.0,17.0,11.0,63.0,23.25,2024-03-21T18:39:49Z
18,18:45:58,高雄市大華國小 高雄市鳥松區大華里大華路200號,高雄市市立大華國小(2018),AirBox,kaohsiung,2024-03-21,74DA38F20BDE,2.0,1.0,22.653,120.34,9.0,高雄市鳥松區大華國小2,16.0,18.0,11.0,63.0,23.25,2024-03-21T18:45:58Z
19,18:52:06,高雄市大華國小 高雄市鳥松區大華里大華路200號,高雄市市立大華國小(2018),AirBox,kaohsiung,2024-03-21,74DA38F20BDE,2.0,1.0,22.653,120.34,9.0,高雄市鳥松區大華國小2,16.0,16.0,11.0,63.0,23.25,2024-03-21T18:52:06Z
20,18:58:14,高雄市大華國小 高雄市鳥松區大華里大華路200號,高雄市市立大華國小(2018),AirBox,kaohsiung,2024-03-21,74DA38F20BDE,2.0,1.0,22.653,120.34,9.0,高雄市鳥松區大華國小2,15.0,17.0,11.0,64.0,23.25,2024-03-21T18:58:14Z
21,19:04:21,高雄市大華國小 高雄市鳥松區大華里大華路200號,高雄市市立大華國小(2018),AirBox,kaohsiung,2024-03-21,74DA38F20BDE,2.0,1.0,22.653,120.34,9.0,高雄市鳥松區大華國小2,16.0,17.0,11.0,64.0,23.25,2024-03-21T19:04:21Z
22,19:10:27,高雄市大華國小 高雄市鳥松區大華里大華路200號,高雄市市立大華國小(2018),AirBox,kaohsiung,2024-03-21,74DA38F20BDE,2.0,1.0,22.653,120.34,9.0,高雄市鳥松區大華國小2,16.0,17.0,11.0,64.0,23.25,2024-03-21T19:10:27Z
23,19:16:35,高雄市大華國小 高雄市鳥松區大華里大華路200號,高雄市市立大華國小(2018),AirBox,kaohsiung,2024-03-21,74DA38F20BDE,2.0,1.0,22.653,120.34,9.0,高雄市鳥松區大華國小2,17.0,18.0,12.0,64.0,23.25,2024-03-21T19:16:35Z
24,19:22:42,高雄市大華國小 高雄市鳥松區大華里大華路200號,高雄市市立大華國小(2018),AirBox,kaohsiung,2024-03-21,74DA38F20BDE,2.0,1.0,22.653,120.34,9.0,高雄市鳥松區大華國小2,16.0,18.0,11.0,64.0,23.25,2024-03-21T19:22:42Z
25,19:28:49,高雄市大華國小 高雄市鳥松區大華里大華路200號,高雄市市立大華國小(2018),AirBox,kaohsiung,2024-03-21,74DA38F20BDE,2.0,1.0,22.653,120.34,9.0,高雄市鳥松區大華國小2,17.0,18.0,12.0,64.0,23.25,2024-03-21T19:28:49Z
26,19:34:56,高雄市大華國小 高雄市鳥松區大華里大華路200號,高雄市市立大華國小(2018),AirBox,kaohsiung,2024-03-21,74DA38F20BDE,2.0,1.0,22.653,120.34,9.0,高雄市鳥松區大華國小2,16.0,17.0,11.0,64.0,23.25,2024-03-21T19:34:56Z
27,19:41:04,高雄市大華國小 高雄市鳥松區大華里大華路200號,高雄市市立大華國小(2018),AirBox,kaohsiung,2024-03-21,74DA38F20BDE,2.0,1.0,22.653,120.34,9.0,高雄市鳥松區大華國小2,16.0,18.0,12.0,64.0,23.25,2024-03-21T19:41:04Z
28,19:47:12,高雄市大華國小 高雄市鳥松區大華里大華路200號,高雄市市立大華國小(2018),AirBox,kaohsiung,2024-03-21,74DA38F20BDE,2.0,1.0,22.653,120.34,9.0,高雄市鳥松區大華國小2,17.0,18.0,12.0,63.0,23.25,2024-03-21T19:47:12Z
29,19:53:19,高雄市大華國小 高雄市鳥松區大華里大華路200號,高雄市市立大華國小(2018),AirBox,kaohsiung,2024-03-21,74DA38F20BDE,2.0,1.0,22.653,120.34,9.0,高雄市鳥松區大華國小2,17.0,19.0,12.0,63.0,23.25,2024-03-21T19:53:19Z
30,19:59:25,高雄市大華國小 高雄市鳥松區大華里大華路200號,高雄市市立大華國小(2018),AirBox,kaohsiung,2024-03-21,74DA38F20BDE,2.0,1.0,22.653,120.34,9.0,高雄市鳥松區大華國小2,16.0,18.0,12.0,63.0,23.12,2024-03-21T19:59:25Z
31,20:05:34,高雄市大華國小 高雄市鳥松區大華里大華路200號,高雄市市立大華國小(2018),AirBox,kaohsiung,2024-03-21,74DA38F20BDE,2.0,1.0,22.653,120.34,9.0,高雄市鳥松區大華國小2,17.0,18.0,11.0,63.0,23.12,2024-03-21T20:05:34Z
32,20:11:41,高雄市大華國小 高雄市鳥松區大華里大華路200號,高雄市市立大華國小(2018),AirBox,kaohsiung,2024-03-21,74DA38F20BDE,2.0,1.0,22.653,120.34,9.0,高雄市鳥松區大華國小2,17.0,18.0,12.0,63.0,23.12,2024-03-21T20:11:41Z
33,20:17:48,高雄市大華國小 高雄市鳥松區大華里大華路200號,高雄市市立大華國小(2018),AirBox,kaohsiung,2024-03-21,74DA38F20BDE,2.0,1.0,22.653,120.34,9.0,高雄市鳥松區大華國小2,17.0,19.0,12.0,63.0,23.0,2024-03-21T20:17:48Z
34,20:23:55,高雄市大華國小 高雄市鳥松區大華里大華路200號,高雄市市立大華國小(2018),AirBox,kaohsiung,2024-03-21,74DA38F20BDE,2.0,1.0,22.653,120.34,9.0,高雄市鳥松區大華國小2,19.0,21.0,14.0,63.0,22.87,2024-03-21T20:23:55Z
35,20:30:06,高雄市大華國小 高雄市鳥松區大華里大華路200號,高雄市市立大華國小(2018),AirBox,kaohsiung,2024-03-21,74DA38F20BDE,2.0,1.0,22.653,120.34,9.0,高雄市鳥松區大華國小2,21.0,22.0,14.0,64.0,22.75,2024-03-21T20:30:06Z
36,20:36:13,高雄市大華國小 高雄市鳥松區大華里大華路200號,高雄市市立大華國小(2018),AirBox,kaohsiung,2024-03-21,74DA38F20BDE,2.0,1.0,22.653,120.34,9.0,高雄市鳥松區大華國小2,19.0,20.0,13.0,64.0,22.62,2024-03-21T20:36:13Z
37,20:42:21,高雄市大華國小 高雄市鳥松區大華里大華路200號,高雄市市立大華國小(2018),AirBox,kaohsiung,2024-03-21,74DA38F20BDE,2.0,1.0,22.653,120.34,9.0,高雄市鳥松區大華國小2,17.0,18.0,12.0,64.0,22.62,2024-03-21T20:42:21Z
38,20:48:28,高雄市大華國小 高雄市鳥松區大華里大華路200號,高雄市市立大華國小(2018),AirBox,kaohsiung,2024-03-21,74DA38F20BDE,2.0,1.0,22.653,120.34,9.0,高雄市鳥松區大華國小2,17.0,19.0,12.0,64.0,22.62,2024-03-21T20:48:28Z
39,20:54:35,高雄市大華國小 高雄市鳥松區大華里大華路200號,高雄市市立大華國小(2018),AirBox,kaohsiung,2024-03-21,74DA38F20BDE,2.0,1.0,22.653,120.34,9.0,高雄市鳥松區大華國小2,17.0,19.0,12.0,64.0,22.62,2024-03-21T20:54:35Z
40,21:00:43,高雄市大華國小 高雄市鳥松區大華里大華路200號,高雄市市立大華國小(2018),AirBox,kaohsiung,2024-03-21,74DA38F20BDE,2.0,1.0,22.653,120.34,9.0,高雄市鳥松區大華國小2,19.0,21.0,12.0,64.0,22.62,2024-03-21T21:00:43Z
41,21:06:52,高雄市大華國小 高雄市鳥松區大華里大華路200號,高雄市市立大華國小(2018),AirBox,kaohsiung,2024-03-21,74DA38F20BDE,2.0,1.0,22.653,120.34,9.0,高雄市鳥松區大華國小2,21.0,23.0,14.0,64.0,22.62,2024-03-21T21:06:52Z
42,21:13:02,高雄市大華國小 高雄市鳥松區大華里大華路200號,高雄市市立大華國小(2018),AirBox,kaohsiung,2024-03-21,74DA38F20BDE,2.0,1.0,22.653,120.34,9.0,高雄市鳥松區大華國小2,22.0,23.0,15.0,63.0,22.62,2024-03-21T21:13:02Z
43,21:19:10,高雄市大華國小 高雄市鳥松區大華里大華路200號,高雄市市立大華國小(2018),AirBox,kaohsiung,2024-03-21,74DA38F20BDE,2.0,1.0,22.653,120.34,9.0,高雄市鳥松區大華國小2,24.0,25.0,17.0,63.0,22.62,2024-03-21T21:19:10Z
44,21:25:17,高雄市大華國小 高雄市鳥松區大華里大華路200號,高雄市市立大華國小(2018),AirBox,kaohsiung,2024-03-21,74DA38F20BDE,2.0,1.0,22.653,120.34,9.0,高雄市鳥松區大華國小2,25.0,27.0,18.0,63.0,22.62,2024-03-21T21:25:17Z
45,21:31:26,高雄市大華國小 高雄市鳥松區大華里大華路200號,高雄市市立大華國小(2018),AirBox,kaohsiung,2024-03-21,74DA38F20BDE,2.0,1.0,22.653,120.34,9.0,高雄市鳥松區大華國小2,25.0,27.0,19.0,63.0,22.75,2024-03-21T21:31:26Z
46,21:37:33,高雄市大華國小 高雄市鳥松區大華里大華路200號,高雄市市立大華國小(2018),AirBox,kaohsiung,2024-03-21,74DA38F20BDE,2.0,1.0,22.653,120.34,9.0,高雄市鳥松區大華國小2,25.0,26.0,18.0,63.0,22.75,2024-03-21T21:37:33Z
47,21:43:42,高雄市大華國小 高雄市鳥松區大華里大華路200號,高雄市市立大華國小(2018),AirBox,kaohsiung,2024-03-21,74DA38F20BDE,2.0,1.0,22.653,120.34,9.0,高雄市鳥松區大華國小2,26.0,27.0,18.0,63.0,22.87,2024-03-21T21:43:42Z
48,21:49:52,高雄市大華國小 高雄市鳥松區大華里大華路200號,高雄市市立大華國小(2018),AirBox,kaohsiung,2024-03-21,74DA38F20BDE,2.0,1.0,22.653,120.34,9.0,高雄市鳥松區大華國小2,26.0,27.0,18.0,63.0,22.87,2024-03-21T21:49:52Z
49,21:56:01,高雄市大華國小 高雄市鳥松區大華里大華路200號,高雄市市立大華國小(2018),AirBox,kaohsiung,2024-03-21,74DA38F20BDE,2.0,1.0,22.653,120.34,9.0,高雄市鳥松區大華國小2,25.0,27.0,18.0,63.0,22.87,2024-03-21T21:56:01Z
50,22:02:10,高雄市大華國小 高雄市鳥松區大華里大華路200號,高雄市市立大華國小(2018),AirBox,kaohsiung,2024-03-21,74DA38F20BDE,2.0,1.0,22.653,120.34,9.0,高雄市鳥松區大華國小2,23.0,25.0,16.0,63.0,22.87,2024-03-21T22:02:10Z
51,22:08:19,高雄市大華國小 高雄市鳥松區大華里大華路200號,高雄市市立大華國小(2018),AirBox,kaohsiung,2024-03-21,74DA38F20BDE,2.0,1.0,22.653,120.34,9.0,高雄市鳥松區大華國小2,22.0,24.0,15.0,63.0,22.87,2024-03-21T22:08:19Z
52,22:14:28,高雄市大華國小 高雄市鳥松區大華里大華路200號,高雄市市立大華國小(2018),AirBox,kaohsiung,2024-03-21,74DA38F20BDE,2.0,1.0,22.653,120.34,9.0,高雄市鳥松區大華國小2,21.0,23.0,14.0,63.0,22.87,2024-03-21T22:14:28Z
53,22:26:58,高雄市大華國小 高雄市鳥松區大華里大華路200號,高雄市市立大華國小(2018),AirBox,kaohsiung,2024-03-21,74DA38F20BDE,2.0,1.0,22.653,120.34,9.0,高雄市鳥松區大華國小2,18.0,20.0,13.0,63.0,22.75,2024-03-21T22:26:58Z
54,22:33:06,高雄市大華國小 高雄市鳥松區大華里大華路200號,高雄市市立大華國小(2018),AirBox,kaohsiung,2024-03-21,74DA38F20BDE,2.0,1.0,22.653,120.34,9.0,高雄市鳥松區大華國小2,20.0,22.0,13.0,64.0,22.75,2024-03-21T22:33:06Z
55,22:39:14,高雄市大華國小 高雄市鳥松區大華里大華路200號,高雄市市立大華國小(2018),AirBox,kaohsiung,2024-03-21,74DA38F20BDE,2.0,1.0,22.653,120.34,9.0,高雄市鳥松區大華國小2,18.0,19.0,12.0,64.0,22.75,2024-03-21T22:39:14Z
56,22:45:20,高雄市大華國小 高雄市鳥松區大華里大華路200號,高雄市市立大華國小(2018),AirBox,kaohsiung,2024-03-21,74DA38F20BDE,2.0,1.0,22.653,120.34,9.0,高雄市鳥松區大華國小2,18.0,19.0,12.0,64.0,22.87,2024-03-21T22:45:20Z
57,22:51:27,高雄市大華國小 高雄市鳥松區大華里大華路200號,高雄市市立大華國小(2018),AirBox,kaohsiung,2024-03-21,74DA38F20BDE,2.0,1.0,22.653,120.34,9.0,高雄市鳥松區大華國小2,15.0,17.0,11.0,64.0,22.87,2024-03-21T22:51:27Z
58,22:57:34,高雄市大華國小 高雄市鳥松區大華里大華路200號,高雄市市立大華國小(2018),AirBox,kaohsiung,2024-03-21,74DA38F20BDE,2.0,1.0,22.653,120.34,9.0,高雄市鳥松區大華國小2,14.0,16.0,10.0,64.0,22.87,2024-03-21T22:57:34Z
59,23:03:42,高雄市大華國小 高雄市鳥松區大華里大華路200號,高雄市市立大華國小(2018),AirBox,kaohsiung,2024-03-21,74DA38F20BDE,2.0,1.0,22.653,120.34,9.0,高雄市鳥松區大華國小2,13.0,14.0,9.0,64.0,23.0,2024-03-21T23:03:42Z
60,23:09:50,高雄市大華國小 高雄市鳥松區大華里大華路200號,高雄市市立大華國小(2018),AirBox,kaohsiung,2024-03-21,74DA38F20BDE,2.0,1.0,22.653,120.34,9.0,高雄市鳥松區大華國小2,13.0,14.0,9.0,64.0,23.0,2024-03-21T23:09:50Z
61,23:15:57,高雄市大華國小 高雄市鳥松區大華里大華路200號,高雄市市立大華國小(2018),AirBox,kaohsiung,2024-03-21,74DA38F20BDE,2.0,1.0,22.653,120.34,9.0,高雄市鳥松區大華國小2,13.0,14.0,8.0,64.0,23.12,2024-03-21T23:15:57Z
62,23:22:04,高雄市大華國小 高雄市鳥松區大華里大華路200號,高雄市市立大華國小(2018),AirBox,kaohsiung,2024-03-21,74DA38F20BDE,2.0,1.0,22.653,120.34,9.0,高雄市鳥松區大華國小2,13.0,14.0,9.0,64.0,23.25,2024-03-21T23:22:04Z
63,23:28:11,高雄市大華國小 高雄市鳥松區大華里大華路200號,高雄市市立大華國小(2018),AirBox,kaohsiung,2024-03-21,74DA38F20BDE,2.0,1.0,22.653,120.34,9.0,高雄市鳥松區大華國小2,14.0,15.0,9.0,63.0,23.25,2024-03-21T23:28:11Z
64,23:34:17,高雄市大華國小 高雄市鳥松區大華里大華路200號,高雄市市立大華國小(2018),AirBox,kaohsiung,2024-03-21,74DA38F20BDE,2.0,1.0,22.653,120.34,9.0,高雄市鳥松區大華國小2,14.0,16.0,10.0,63.0,23.37,2024-03-21T23:34:17Z
65,23:40:25,高雄市大華國小 高雄市鳥松區大華里大華路200號,高雄市市立大華國小(2018),AirBox,kaohsiung,2024-03-21,74DA38F20BDE,2.0,1.0,22.653,120.34,9.0,高雄市鳥松區大華國小2,15.0,16.0,10.0,63.0,23.37,2024-03-21T23:40:25Z
66,23:46:32,高雄市大華國小 高雄市鳥松區大華里大華路200號,高雄市市立大華國小(2018),AirBox,kaohsiung,2024-03-21,74DA38F20BDE,2.0,1.0,22.653,120.34,9.0,高雄市鳥松區大華國小2,15.0,17.0,10.0,63.0,23.5,2024-03-21T23:46:32Z
67,23:52:40,高雄市大華國小 高雄市鳥松區大華里大華路200號,高雄市市立大華國小(2018),AirBox,kaohsiung,2024-03-21,74DA38F20BDE,2.0,1.0,22.653,120.34,9.0,高雄市鳥松區大華國小2,15.0,15.0,10.0,63.0,23.5,2024-03-21T23:52:40Z
68,23:58:48,高雄市大華國小 高雄市鳥松區大華里大華路200號,高雄市市立大華國小(2018),AirBox,kaohsiung,2024-03-21,74DA38F20BDE,2.0,1.0,22.653,120.34,9.0,高雄市鳥松區大華國小2,15.0,16.0,11.0,62.0,23.62,2024-03-21T23:58:48Z
69,00:11:20,高雄市大華國小 高雄市鳥松區大華里大華路200號,高雄市市立大華國小(2018),AirBox,kaohsiung,2024-03-22,74DA38F20BDE,2.0,1.0,22.653,120.34,9.0,高雄市鳥松區大華國小2,16.0,17.0,11.0,62.0,23.87,2024-03-22T00:11:20Z
70,00:17:27,高雄市大華國小 高雄市鳥松區大華里大華路200號,高雄市市立大華國小(2018),AirBox,kaohsiung,2024-03-22,74DA38F20BDE,2.0,1.0,22.653,120.34,9.0,高雄市鳥松區大華國小2,14.0,16.0,10.0,61.0,24.0,2024-03-22T00:17:27Z
71,00:23:37,高雄市大華國小 高雄市鳥松區大華里大華路200號,高雄市市立大華國小(2018),AirBox,kaohsiung,2024-03-22,74DA38F20BDE,2.0,1.0,22.653,120.34,9.0,高雄市鳥松區大華國小2,15.0,17.0,10.0,61.0,24.0,2024-03-22T00:23:37Z
72,00:29:45,高雄市大華國小 高雄市鳥松區大華里大華路200號,高雄市市立大華國小(2018),AirBox,kaohsiung,2024-03-22,74DA38F20BDE,2.0,1.0,22.653,120.34,9.0,高雄市鳥松區大華國小2,15.0,17.0,11.0,61.0,24.0,2024-03-22T00:29:45Z
73,00:35:54,高雄市大華國小 高雄市鳥松區大華里大華路200號,高雄市市立大華國小(2018),AirBox,kaohsiung,2024-03-22,74DA38F20BDE,2.0,1.0,22.653,120.34,9.0,高雄市鳥松區大華國小2,14.0,16.0,10.0,61.0,24.25,2024-03-22T00:35:54Z
74,00:42:02,高雄市大華國小 高雄市鳥松區大華里大華路200號,高雄市市立大華國小(2018),AirBox,kaohsiung,2024-03-22,74DA38F20BDE,2.0,1.0,22.653,120.34,9.0,高雄市鳥松區大華國小2,15.0,16.0,10.0,60.0,24.37,2024-03-22T00:42:02Z
75,00:48:10,高雄市大華國小 高雄市鳥松區大華里大華路200號,高雄市市立大華國小(2018),AirBox,kaohsiung,2024-03-22,74DA38F20BDE,2.0,1.0,22.653,120.34,9.0,高雄市鳥松區大華國小2,14.0,15.0,10.0,59.0,24.5,2024-03-22T00:48:10Z
76,00:54:20,高雄市大華國小 高雄市鳥松區大華里大華路200號,高雄市市立大華國小(2018),AirBox,kaohsiung,2024-03-22,74DA38F20BDE,2.0,1.0,22.653,120.34,9.0,高雄市鳥松區大華國小2,15.0,16.0,10.0,59.0,24.62,2024-03-22T00:54:20Z
77,01:00:27,高雄市大華國小 高雄市鳥松區大華里大華路200號,高雄市市立大華國小(2018),AirBox,kaohsiung,2024-03-22,74DA38F20BDE,2.0,1.0,22.653,120.34,9.0,高雄市鳥松區大華國小2,14.0,15.0,10.0,58.0,24.75,2024-03-22T01:00:27Z
78,01:06:34,高雄市大華國小 高雄市鳥松區大華里大華路200號,高雄市市立大華國小(2018),AirBox,kaohsiung,2024-03-22,74DA38F20BDE,2.0,1.0,22.653,120.34,9.0,高雄市鳥松區大華國小2,13.0,14.0,9.0,58.0,24.87,2024-03-22T01:06:34Z
79,01:12:42,高雄市大華國小 高雄市鳥松區大華里大華路200號,高雄市市立大華國小(2018),AirBox,kaohsiung,2024-03-22,74DA38F20BDE,2.0,1.0,22.653,120.34,9.0,高雄市鳥松區大華國小2,14.0,14.0,10.0,58.0,25.0,2024-03-22T01:12:42Z
80,01:18:49,高雄市大華國小 高雄市鳥松區大華里大華路200號,高雄市市立大華國小(2018),AirBox,kaohsiung,2024-03-22,74DA38F20BDE,2.0,1.0,22.653,120.34,9.0,高雄市鳥松區大華國小2,13.0,15.0,9.0,57.0,25.12,2024-03-22T01:18:49Z
81,01:24:58,高雄市大華國小 高雄市鳥松區大華里大華路200號,高雄市市立大華國小(2018),AirBox,kaohsiung,2024-03-22,74DA38F20BDE,2.0,1.0,22.653,120.34,9.0,高雄市鳥松區大華國小2,12.0,14.0,8.0,56.0,25.25,2024-03-22T01:24:58Z
82,01:31:04,高雄市大華國小 高雄市鳥松區大華里大華路200號,高雄市市立大華國小(2018),AirBox,kaohsiung,2024-03-22,74DA38F20BDE,2.0,1.0,22.653,120.34,9.0,高雄市鳥松區大華國小2,11.0,12.0,8.0,56.0,25.37,2024-03-22T01:31:04Z
83,01:37:13,高雄市大華國小 高雄市鳥松區大華里大華路200號,高雄市市立大華國小(2018),AirBox,kaohsiung,2024-03-22,74DA38F20BDE,2.0,1.0,22.653,120.34,9.0,高雄市鳥松區大華國小2,12.0,12.0,8.0,55.0,25.5,2024-03-22T01:37:13Z
84,01:43:22,高雄市大華國小 高雄市鳥松區大華里大華路200號,高雄市市立大華國小(2018),AirBox,kaohsiung,2024-03-22,74DA38F20BDE,2.0,1.0,22.653,120.34,9.0,高雄市鳥松區大華國小2,12.0,13.0,8.0,55.0,25.5,2024-03-22T01:43:22Z
85,01:49:29,高雄市大華國小 高雄市鳥松區大華里大華路200號,高雄市市立大華國小(2018),AirBox,kaohsiung,2024-03-22,74DA38F20BDE,2.0,1.0,22.653,120.34,9.0,高雄市鳥松區大華國小2,13.0,14.0,9.0,54.0,25.62,2024-03-22T01:49:29Z
86,01:55:36,高雄市大華國小 高雄市鳥松區大華里大華路200號,高雄市市立大華國小(2018),AirBox,kaohsiung,2024-03-22,74DA38F20BDE,2.0,1.0,22.653,120.34,9.0,高雄市鳥松區大華國小2,12.0,13.0,8.0,54.0,25.75,2024-03-22T01:55:36Z
87,02:01:44,高雄市大華國小 高雄市鳥松區大華里大華路200號,高雄市市立大華國小(2018),AirBox,kaohsiung,2024-03-22,74DA38F20BDE,2.0,1.0,22.653,120.34,9.0,高雄市鳥松區大華國小2,11.0,13.0,8.0,53.0,25.75,2024-03-22T02:01:44Z
88,02:07:51,高雄市大華國小 高雄市鳥松區大華里大華路200號,高雄市市立大華國小(2018),AirBox,kaohsiung,2024-03-22,74DA38F20BDE,2.0,1.0,22.653,120.34,9.0,高雄市鳥松區大華國小2,14.0,15.0,10.0,52.0,25.87,2024-03-22T02:07:51Z
89,02:14:00,高雄市大華國小 高雄市鳥松區大華里大華路200號,高雄市市立大華國小(2018),AirBox,kaohsiung,2024-03-22,74DA38F20BDE,2.0,1.0,22.653,120.34,9.0,高雄市鳥松區大華國小2,14.0,15.0,10.0,52.0,26.0,2024-03-22T02:14:00Z
90,02:20:09,高雄市大華國小 高雄市鳥松區大華里大華路200號,高雄市市立大華國小(2018),AirBox,kaohsiung,2024-03-22,74DA38F20BDE,2.0,1.0,22.653,120.34,9.0,高雄市鳥松區大華國小2,17.0,18.0,11.0,52.0,26.12,2024-03-22T02:20:09Z
91,02:26:17,高雄市大華國小 高雄市鳥松區大華里大華路200號,高雄市市立大華國小(2018),AirBox,kaohsiung,2024-03-22,74DA38F20BDE,2.0,1.0,22.653,120.34,9.0,高雄市鳥松區大華國小2,17.0,19.0,12.0,53.0,26.25,2024-03-22T02:26:17Z
92,02:32:26,高雄市大華國小 高雄市鳥松區大華里大華路200號,高雄市市立大華國小(2018),AirBox,kaohsiung,2024-03-22,74DA38F20BDE,2.0,1.0,22.653,120.34,9.0,高雄市鳥松區大華國小2,18.0,19.0,12.0,52.0,26.25,2024-03-22T02:32:26Z
93,02:38:35,高雄市大華國小 高雄市鳥松區大華里大華路200號,高雄市市立大華國小(2018),AirBox,kaohsiung,2024-03-22,74DA38F20BDE,2.0,1.0,22.653,120.34,9.0,高雄市鳥松區大華國小2,17.0,18.0,12.0,51.0,26.37,2024-03-22T02:38:35Z
94,02:44:45,高雄市大華國小 高雄市鳥松區大華里大華路200號,高雄市市立大華國小(2018),AirBox,kaohsiung,2024-03-22,74DA38F20BDE,2.0,1.0,22.653,120.34,9.0,高雄市鳥松區大華國小2,16.0,16.0,11.0,50.0,26.37,2024-03-22T02:44:45Z
95,02:50:53,高雄市大華國小 高雄市鳥松區大華里大華路200號,高雄市市立大華國小(2018),AirBox,kaohsiung,2024-03-22,74DA38F20BDE,2.0,1.0,22.653,120.34,9.0,高雄市鳥松區大華國小2,15.0,16.0,11.0,50.0,26.5,2024-03-22T02:50:53Z
96,02:57:01,高雄市大華國小 高雄市鳥松區大華里大華路200號,高雄市市立大華國小(2018),AirBox,kaohsiung,2024-03-22,74DA38F20BDE,2.0,1.0,22.653,120.34,9.0,高雄市鳥松區大華國小2,16.0,18.0,11.0,50.0,26.62,2024-03-22T02:57:01Z
97,03:03:10,高雄市大華國小 高雄市鳥松區大華里大華路200號,高雄市市立大華國小(2018),AirBox,kaohsiung,2024-03-22,74DA38F20BDE,2.0,1.0,22.653,120.34,9.0,高雄市鳥松區大華國小2,16.0,17.0,11.0,50.0,26.75,2024-03-22T03:03:10Z
98,03:09:20,高雄市大華國小 高雄市鳥松區大華里大華路200號,高雄市市立大華國小(2018),AirBox,kaohsiung,2024-03-22,74DA38F20BDE,2.0,1.0,22.653,120.34,9.0,高雄市鳥松區大華國小2,16.0,16.0,11.0,50.0,26.87,2024-03-22T03:09:20Z
99,03:15:28,高雄市大華國小 高雄市鳥松區大華里大華路200號,高雄市市立大華國小(2018),AirBox,kaohsiung,2024-03-22,74DA38F20BDE,2.0,1.0,22.653,120.34,9.0,高雄市鳥松區大華國小2,15.0,16.0,11.0,51.0,26.87,2024-03-22T03:15:28Z
100,03:21:36,高雄市大華國小 高雄市鳥松區大華里大華路200號,高雄市市立大華國小(2018),AirBox,kaohsiung,2024-03-22,74DA38F20BDE,2.0,1.0,22.653,120.34,9.0,高雄市鳥松區大華國小2,15.0,17.0,11.0,50.0,27.0,2024-03-22T03:21:36Z
101,03:27:44,高雄市大華國小 高雄市鳥松區大華里大華路200號,高雄市市立大華國小(2018),AirBox,kaohsiung,2024-03-22,74DA38F20BDE,2.0,1.0,22.653,120.34,9.0,高雄市鳥松區大華國小2,15.0,16.0,11.0,50.0,27.12,2024-03-22T03:27:44Z
102,03:33:52,高雄市大華國小 高雄市鳥松區大華里大華路200號,高雄市市立大華國小(2018),AirBox,kaohsiung,2024-03-22,74DA38F20BDE,2.0,1.0,22.653,120.34,9.0,高雄市鳥松區大華國小2,16.0,17.0,11.0,49.0,27.25,2024-03-22T03:33:52Z
103,03:40:00,高雄市大華國小 高雄市鳥松區大華里大華路200號,高雄市市立大華國小(2018),AirBox,kaohsiung,2024-03-22,74DA38F20BDE,2.0,1.0,22.653,120.34,9.0,高雄市鳥松區大華國小2,17.0,18.0,11.0,50.0,27.25,2024-03-22T03:40:00Z
104,03:46:08,高雄市大華國小 高雄市鳥松區大華里大華路200號,高雄市市立大華國小(2018),AirBox,kaohsiung,2024-03-22,74DA38F20BDE,2.0,1.0,22.653,120.34,9.0,高雄市鳥松區大華國小2,16.0,18.0,11.0,50.0,27.37,2024-03-22T03:46:08Z
105,03:52:15,高雄市大華國小 高雄市鳥松區大華里大華路200號,高雄市市立大華國小(2018),AirBox,kaohsiung,2024-03-22,74DA38F20BDE,2.0,1.0,22.653,120.34,9.0,高雄市鳥松區大華國小2,18.0,20.0,12.0,50.0,27.5,2024-03-22T03:52:15Z
106,03:58:25,高雄市大華國小 高雄市鳥松區大華里大華路200號,高雄市市立大華國小(2018),AirBox,kaohsiung,2024-03-22,74DA38F20BDE,2.0,1.0,22.653,120.34,9.0,高雄市鳥松區大華國小2,18.0,19.0,12.0,49.0,27.5,2024-03-22T03:58:25Z
107,04:04:35,高雄市大華國小 高雄市鳥松區大華里大華路200號,高雄市市立大華國小(2018),AirBox,kaohsiung,2024-03-22,74DA38F20BDE,2.0,1.0,22.653,120.34,9.0,高雄市鳥松區大華國小2,20.0,21.0,13.0,50.0,27.62,2024-03-22T04:04:35Z
108,04:10:44,高雄市大華國小 高雄市鳥松區大華里大華路200號,高雄市市立大華國小(2018),AirBox,kaohsiung,2024-03-22,74DA38F20BDE,2.0,1.0,22.653,120.34,9.0,高雄市鳥松區大華國小2,19.0,21.0,13.0,51.0,27.62,2024-03-22T04:10:44Z
109,04:16:53,高雄市大華國小 高雄市鳥松區大華里大華路200號,高雄市市立大華國小(2018),AirBox,kaohsiung,2024-03-22,74DA38F20BDE,2.0,1.0,22.653,120.34,9.0,高雄市鳥松區大華國小2,19.0,21.0,14.0,51.0,27.87,2024-03-22T04:16:53Z
110,04:23:02,高雄市大華國小 高雄市鳥松區大華里大華路200號,高雄市市立大華國小(2018),AirBox,kaohsiung,2024-03-22,74DA38F20BDE,2.0,1.0,22.653,120.34,9.0,高雄市鳥松區大華國小2,18.0,20.0,12.0,51.0,27.87,2024-03-22T04:23:02Z
111,04:29:11,高雄市大華國小 高雄市鳥松區大華里大華路200號,高雄市市立大華國小(2018),AirBox,kaohsiung,2024-03-22,74DA38F20BDE,2.0,1.0,22.653,120.34,9.0,高雄市鳥松區大華國小2,16.0,18.0,11.0,51.0,27.87,2024-03-22T04:29:11Z
112,04:35:17,高雄市大華國小 高雄市鳥松區大華里大華路200號,高雄市市立大華國小(2018),AirBox,kaohsiung,2024-03-22,74DA38F20BDE,2.0,1.0,22.653,120.34,9.0,高雄市鳥松區大華國小2,14.0,14.0,10.0,52.0,27.87,2024-03-22T04:35:17Z
113,04:41:24,高雄市大華國小 高雄市鳥松區大華里大華路200號,高雄市市立大華國小(2018),AirBox,kaohsiung,2024-03-22,74DA38F20BDE,2.0,1.0,22.653,120.34,9.0,高雄市鳥松區大華國小2,13.0,14.0,9.0,52.0,28.0,2024-03-22T04:41:24Z
114,04:47:32,高雄市大華國小 高雄市鳥松區大華里大華路200號,高雄市市立大華國小(2018),AirBox,kaohsiung,2024-03-22,74DA38F20BDE,2.0,1.0,22.653,120.34,9.0,高雄市鳥松區大華國小2,13.0,14.0,9.0,52.0,28.0,2024-03-22T04:47:32Z
115,04:53:39,高雄市大華國小 高雄市鳥松區大華里大華路200號,高雄市市立大華國小(2018),AirBox,kaohsiung,2024-03-22,74DA38F20BDE,2.0,1.0,22.653,120.34,9.0,高雄市鳥松區大華國小2,13.0,14.0,8.0,52.0,28.11,2024-03-22T04:53:39Z
116,04:59:47,高雄市大華國小 高雄市鳥松區大華里大華路200號,高雄市市立大華國小(2018),AirBox,kaohsiung,2024-03-22,74DA38F20BDE,2.0,1.0,22.653,120.34,9.0,高雄市鳥松區大華國小2,12.0,13.0,8.0,51.0,28.0,2024-03-22T04:59:47Z
117,05:05:54,高雄市大華國小 高雄市鳥松區大華里大華路200號,高雄市市立大華國小(2018),AirBox,kaohsiung,2024-03-22,74DA38F20BDE,2.0,1.0,22.653,120.34,9.0,高雄市鳥松區大華國小2,11.0,12.0,8.0,52.0,28.11,2024-03-22T05:05:54Z
118,05:12:01,高雄市大華國小 高雄市鳥松區大華里大華路200號,高雄市市立大華國小(2018),AirBox,kaohsiung,2024-03-22,74DA38F20BDE,2.0,1.0,22.653,120.34,9.0,高雄市鳥松區大華國小2,11.0,12.0,8.0,53.0,28.11,2024-03-22T05:12:01Z
119,05:18:10,高雄市大華國小 高雄市鳥松區大華里大華路200號,高雄市市立大華國小(2018),AirBox,kaohsiung,2024-03-22,74DA38F20BDE,2.0,1.0,22.653,120.34,9.0,高雄市鳥松區大華國小2,11.0,12.0,8.0,53.0,28.25,2024-03-22T05:18:10Z
120,05:24:17,高雄市大華國小 高雄市鳥松區大華里大華路200號,高雄市市立大華國小(2018),AirBox,kaohsiung,2024-03-22,74DA38F20BDE,2.0,1.0,22.653,120.34,9.0,高雄市鳥松區大華國小2,11.0,12.0,8.0,53.0,28.25,2024-03-22T05:24:17Z
121,05:36:37,高雄市大華國小 高雄市鳥松區大華里大華路200號,高雄市市立大華國小(2018),AirBox,kaohsiung,2024-03-22,74DA38F20BDE,2.0,1.0,22.653,120.34,9.0,高雄市鳥松區大華國小2,11.0,12.0,8.0,54.0,28.36,2024-03-22T05:36:37Z
122,05:42:45,高雄市大華國小 高雄市鳥松區大華里大華路200號,高雄市市立大華國小(2018),AirBox,kaohsiung,2024-03-22,74DA38F20BDE,2.0,1.0,22.653,120.34,9.0,高雄市鳥松區大華國小2,10.0,11.0,7.0,54.0,28.36,2024-03-22T05:42:45Z
123,05:48:53,高雄市大華國小 高雄市鳥松區大華里大華路200號,高雄市市立大華國小(2018),AirBox,kaohsiung,2024-03-22,74DA38F20BDE,2.0,1.0,22.653,120.34,9.0,高雄市鳥松區大華國小2,11.0,12.0,7.0,54.0,28.36,2024-03-22T05:48:53Z
124,05:55:15,高雄市大華國小 高雄市鳥松區大華里大華路200號,高雄市市立大華國小(2018),AirBox,kaohsiung,2024-03-22,74DA38F20BDE,2.0,1.0,22.653,120.34,9.0,高雄市鳥松區大華國小2,11.0,11.0,7.0,54.0,28.5,2024-03-22T05:55:15Z
125,06:01:23,高雄市大華國小 高雄市鳥松區大華里大華路200號,高雄市市立大華國小(2018),AirBox,kaohsiung,2024-03-22,74DA38F20BDE,2.0,1.0,22.653,120.34,9.0,高雄市鳥松區大華國小2,12.0,13.0,8.0,54.0,28.5,2024-03-22T06:01:23Z
126,06:07:56,高雄市大華國小 高雄市鳥松區大華里大華路200號,高雄市市立大華國小(2018),AirBox,kaohsiung,2024-03-22,74DA38F20BDE,2.0,1.0,22.653,120.34,9.0,高雄市鳥松區大華國小2,12.0,13.0,8.0,54.0,28.5,2024-03-22T06:07:56Z
127,06:14:09,高雄市大華國小 高雄市鳥松區大華里大華路200號,高雄市市立大華國小(2018),AirBox,kaohsiung,2024-03-22,74DA38F20BDE,2.0,1.0,22.653,120.34,9.0,高雄市鳥松區大華國小2,12.0,13.0,8.0,54.0,28.5,2024-03-22T06:14:09Z
128,06:20:17,高雄市大華國小 高雄市鳥松區大華里大華路200號,高雄市市立大華國小(2018),AirBox,kaohsiung,2024-03-22,74DA38F20BDE,2.0,1.0,22.653,120.34,9.0,高雄市鳥松區大華國小2,13.0,14.0,8.0,54.0,28.5,2024-03-22T06:20:17Z
129,06:26:26,高雄市大華國小 高雄市鳥松區大華里大華路200號,高雄市市立大華國小(2018),AirBox,kaohsiung,2024-03-22,74DA38F20BDE,2.0,1.0,22.653,120.34,9.0,高雄市鳥松區大華國小2,13.0,14.0,8.0,54.0,28.5,2024-03-22T06:26:26Z
130,06:32:33,高雄市大華國小 高雄市鳥松區大華里大華路200號,高雄市市立大華國小(2018),AirBox,kaohsiung,2024-03-22,74DA38F20BDE,2.0,1.0,22.653,120.34,9.0,高雄市鳥松區大華國小2,12.0,13.0,8.0,54.0,28.5,2024-03-22T06:32:33Z
131,06:38:40,高雄市大華國小 高雄市鳥松區大華里大華路200號,高雄市市立大華國小(2018),AirBox,kaohsiung,2024-03-22,74DA38F20BDE,2.0,1.0,22.653,120.34,9.0,高雄市鳥松區大華國小2,11.0,12.0,8.0,54.0,28.5,2024-03-22T06:38:40Z
132,06:44:46,高雄市大華國小 高雄市鳥松區大華里大華路200號,高雄市市立大華國小(2018),AirBox,kaohsiung,2024-03-22,74DA38F20BDE,2.0,1.0,22.653,120.34,9.0,高雄市鳥松區大華國小2,11.0,12.0,8.0,54.0,28.36,2024-03-22T06:44:46Z